Location: Gro�wechsungen
(51.4926°N, 10.6901°E)
Time: 14:21:52
(UTC+00:00)

Cosmos 2082 Rocket - Pass Details

Date: 26 January 2021
Orbit: 832 x 854 km, 71.0° (Epoch: 04 March)

Event Time Altitude Azimuth Distance (km) Brightness Sun altitude
Rises 18:04:50 0° 330° (NNW) 3,438 5.7 -19.8°
Reaches altitude 10° 18:07:19 10° 332° (NNW) 2,497 4.9 -20.1°
Maximum altitude 18:13:04 74° 58° (ENE) 892 2.1 -21.0°
Enters shadow 18:16:09 28° 138° (SE) 1,543 3.2 -21.5°
